MEZNSAT (46489 NORAD) Tracking and Keplerian Element Data

This shows tracking and keplerian element data for the satellite.

Feedback or suggestion? Click here.




ElementValue
Catalog46489
NameMEZNSAT
Epoch Orbit950
Epoch Day335.77461394
Epoch Year2020
RAAN268.7185
Inclination97.6739
Eccentricity0.0019568
Argument of Perigee29.6079
Mean Anonmoly0.8265
Mean Motion15.03631073
Decay Rate2.037E-05
L11 46489U 20068D 20335.77461394 .00002037 00000-0 15282-3 0 9994
L22 46489 97.6739 268.7185 0019568 29.6079 0.8265 15.03631073 9507

Live tracking and technical data element details for MEZNSAT (NORAD 46489). MEZNSAT can be tracked NOW for your location showing map with azimuth and elevation plus other details from your city location.

Track the satellite on the map from your city or location and see movement details for azimuth, elevation, latitude, longitude, range, height, and movement on the map or in text.







IsCatalogInMostPopularTable: catalog: 46489, numindb: 17
Update: records affected: 1



GetName: 46489 MEZNSAT

Hit Count: updated at: Tue, 01 Dec 2020 22:03:16 GMT